Booneville, Arkansas, United States (72927)
Lat: 35.14N, Lon: 93.92W
Wx Zone: ARZ030
Local Info
Past Weather Observations for Today

NOTE: This archive is for the closest National Weather Service station to Booneville. Information may differ from the station used for current weather conditions.

Click here for Long-term Archive

Time Weather Temperature Dewpoint Humidity Pressure Winds Precip Visibility
21:53
Clear
70°F / 21°C 64°F / 18°C 83% 30.04 in
(1017 mb)
E 5.8 mph
(E 9 kph)
- 10SM
20:53
Clear
70°F / 21°C 64°F / 18°C 83% 30.01 in
(1016 mb)
E 8.1 mph
(E 13 kph)
- 10SM
19:53
Clear
72°F / 22°C 66°F / 19°C 83% 29.98 in
(1015 mb)
E 5.8 mph
(E 9 kph)
- 10SM
18:53
Clear
73°F / 23°C 66°F / 19°C 78% 29.98 in
(1015 mb)
ENE 5.8 mph
(ENE 9 kph)
- 10SM
17:53
Clear
75°F / 24°C 66°F / 19°C 74% 30.01 in
(1016 mb)
E 8.1 mph
(E 13 kph)
- 10SM
16:53
Clear
79°F / 26°C 64°F / 18°C 61% 30.01 in
(1016 mb)
E 5.8 mph
(E 9 kph)
- 10SM
16:04
Partly Cloudy
Partly 1000 Cloudy
79°F / 26°C 66°F / 19°C 65% 30.01 in
(1016 mb)
SE 6.9 mph
(SE 11 kph)
- 10SM
15:53
Mostly Cloudy
79°F / 26°C 66°F / 19°C 65% 30.01 in
(1016 mb)
Variable 5.8 mph
(Variable 9 kph)
- 10SM
15:27
Mostly Cloudy
77°F / 25°C 66°F / 19°C 69% 30.04 in
(1017 mb)
ESE 8.1 mph
(ESE 13 kph)
- 10SM
14:53
Partly Cloudy
77°F / 25°C 66°F / 19°C 69% 30.04 in
(1017 mb)
Calm - 10SM
13:53
Partly Cloudy
73°F / 23°C 66°F / 19°C 78% 30.06 in
(1018 mb)
SSW 5.8 mph
(SSW 9 kph)
- 10SM
13:38
Mostly Cloudy
73°F / 23°C 66°F / 19°C 78% 30.06 in
(1018 mb)
SSW 9.2 mph
(SSW 15 kph)
- 10SM
13:11
Mostly Cloudy
73°F / 23°C 66°F / 19°C 78% 30.06 in
(1018 mb)
SSW 5.8 mph
(SSW 9 kph)
- 10SM
12:53
Mostly Cloudy
72°F / 22°C 64°F / 18°C 78% 30.06 in
(1018 mb)
S 3.5 mph
(S 6 kph)
0.02 in
(0.51 mm)
10SM
12:41
Overcast
72°F / 22°C 64°F / 18°C 78% 30.06 in
(1018 mb)
Variable 3.5 mph
(Variable 6 kph)
0.02 in
(0.51 mm)
10SM
12:06
Overcast
Light Rain
68°F / 20°C 64°F / 18°C 88% 30.09 in
(1019 mb)
SSE 3.5 mph
(SSE 6 kph)
0.02 in
(0.51 mm)
10SM
11:53
Overcast
Light Rain
68°F / 20°C 64°F / 18°C 88% 30.09 in
(1019 mb)
SSE 5.8 mph
(SSE 9 kph)
0.12 in
(3.05 mm)
8SM
11:09
Overcast
Thunder Storms
68°F / 20°C 64°F / 18°C 88% 30.09 in
(1019 mb)
S 3.5 mph
(S 6 kph)
0.04 in
(1.02 mm)
5SM
11:02
Overcast
Rain
68°F / 20°C 64°F / 18°C 88% 30.09 in
(1019 mb)
S 8.1 mph
(S 13 kph)
0.03 in
(0.76 mm)
4SM
10:53
Overcast
Rain
70°F / 21°C 64°F / 18°C 83% 30.12 in
(1020 mb)
SSE 11.5 mph
(SSE 19 kph)
0.04 in
(1.02 mm)
5SM
10:31
Mostly Cloudy
Thunder Storms
72°F / 22°C 68°F / 20°C 88% 30.09 in
(1019 mb)
E 9.2 mph
(E 15 kph)
0.00 in
(0.00 mm)
7SM
09:53
Mostly Cloudy
Light Rain
72°F / 22°C 68°F / 20°C 88% 30.09 in
(1019 mb)
ENE 5.8 mph
(ENE 9 kph)
0.01 in
(0.25 mm)
8SM
09:22
Clear
Thunder Storms
72°F / 22°C 68°F / 20°C 88% 30.09 in
(1019 mb)
E 6.9 mph
(E 11 kph)
- 5SM
08:53
Clear
72°F / 22°C 68°F / 20°C 88% 30.09 in
(1019 mb)
ENE 6.9 mph
(ENE 11 kph)
- 9SM
07:53
Clear
72°F / 22°C 66°F / 19°C 83% 30.09 in
(1019 mb)
ENE 5.8 mph
(ENE 9 kph)
- 10SM
05:53
Clear
70°F / 21°C 66°F / 19°C 88% 30.06 in
(1018 mb)
ENE 6.9 mph
(ENE 11 kph)
- 7SM
04:53
Clear
68°F / 20°C 64°F / 18°C 88% 30.06 in
(1018 mb)
ENE 5.8 mph
(ENE 9 kph)
- 10SM
03:53
Clear
70°F / 21°C 66°F / 19°C 88% 30.09 in
(1019 mb)
NE 3.5 mph
(NE 6 kph)
- 10SM
02:53
Clear
68°F / 20°C 66°F / 19°C 94% 30.06 in
(1018 mb)
ENE 4.6 mph
(ENE 7 kph)
- 10SM
01:53
Clear
70°F / 21°C 66°F / 19°C 88% 30.06 in
(1018 mb)
Calm - 10SM
00:53
Clear
72°F / 22°C 66°F / 19°C 83% 30.06 in
(1018 mb)
ENE 4.6 mph
(ENE 7 kph)
- 10SM
Time Weather Temperature Dewpoint Humidity Pressure Winds Precip Visibility


Weather for websites

WeatherForYou.com, LLC is not responsible for any damages or problems caused by this service. Current weather conditions are obtained from the closest station including government and personal stations which may have varying degrees of accuracy. Weather forecasts are derived from the NOAA NDFD. Like all things, this site belongs to Jesus Christ... He just trusts us to maintain it. If you have any questions or comments email webmaster@weatherforyou.com

Copyright © 2015, WeatherForYou.com LLC. All rights reserved.